[[{"header":{"parameterUnit":"m.s-1","parameterCategory":2,"la1":30.2991,"la2":30.254,"lo1":-89.0895,"lo2":-89.0444,"dy":0.0017,"dx":0.0017,"nx":28,"ny":28,"refTime":"2025-08-07T03:00:00:Z","depth":"0","parameterNumber":2,"parameterNumberName":"U-component_of_CURRENTS"},"data":[0,0,0,0,0,0,0,0,0,0,0,0,0,0,0,0,0,0,0,0,0,0,0,0,0,0,0,0,0,0,0,0,0,0,0,0,0,0,0,0,0,0,0,0,0,0,0,0,0,0,0,0,0,0,0,0,0,0,0.2795,0.2795,0,0.2813,0.2813,0.2813,0.2801,0.28,0.28,0.28,0.2827,0.2828,0.2829,0,0,0,0,0,0,0,0,0,0,0,0,0,0.2769,0.2769,0.2795,0.2795,0.2795,0.2813,0.2813,0.2813,0.2801,0.28,0.28,0.2799,0.2826,0.2828,0.2829,0,0,0,0,0,0,0,0,0,0,0,0,0,0.2781,0.2769,0.2795,0.2793,0.2793,0.2813,0.2813,0.2813,0.2801,0.28,0.28,0.2799,0.2826,0.2827,0.2829,0.2851,0,0,0.2834,0.2835,0,0,0,0,0,0,0,0,0.2781,0.2782,0.2793,0.2793,0.2793,0.2806,0.2814,0.2827,0.2801,0.2796,0.28,0.2799,0.2822,0.2824,0.2826,0.2853,0.2854,0.2834,0.2835,0.2836,0.2836,0,0,0,0,0,0,0,0.278,0.2781,0.28,0.2793,0.2793,0.2798,0.2799,0.2817,0.2811,0.2796,0.2796,0.2801,0.2822,0.2825,0.2827,0.2854,0.2834,0.2836,0.2837,0.2837,0.298,0.2982,0,0,0,0,0,0,0.2781,0.278,0.28,0.2801,0.2787,0.2799,0.28,0.2801,0.281,0.2812,0.2802,0.2801,0.2822,0.2825,0.2828,0.2926,0.2836,0.2837,0.2838,0.2977,0.298,0.2983,0,0,0,0,0,0,0.278,0.2782,0.2799,0.2793,0.2795,0.28,0.2801,0.2801,0.2808,0.2815,0.2816,0.2809,0.2822,0.2825,0.2864,0.2924,0.2838,0.284,0.2973,0.2978,0.2982,0.3077,0,0,0,0,0,0,0.2779,0.2782,0.2783,0.2793,0.2796,0.2828,0.2802,0.2802,0.2813,0.2812,0.2822,0.2823,0.2821,0.2861,0.2865,0.2925,0.2841,0.297,0.2975,0.298,0.3071,0.3084,0.3096,0,0,0,0,0,0.2778,0.2784,0.2783,0.2786,0.2797,0.283,0.2833,0.2832,0.2814,0.2832,0.2839,0.2823,0.2898,0.2865,0.2869,0.293,0.2967,0.2974,0.298,0.3065,0.3082,0.3096,0,0,0,0,0,0,0.2771,0.2784,0.2783,0.2791,0.2817,0.2829,0.2839,0.2838,0.2856,0.2851,0.2848,0.2852,0.2915,0.2907,0.287,0.2989,0.2935,0.2942,0.2998,0.3014,0.3026,0.3013,0.2842,0,0,0,0,0,0.2772,0.2779,0.28,0.2809,0.2821,0.2831,0.2841,0.2847,0.2863,0.2868,0.2877,0.2899,0.2945,0.2963,0.2992,0.3046,0.3053,0.3093,0.3105,0.3116,0.311,0.3192,0.3212,0.3004,0.3004,0.3004,0,0,0.2771,0.278,0.2783,0.2809,0.2822,0.2861,0.2835,0.286,0.2899,0.2871,0.2918,0.294,0.2969,0.304,0.3068,0.3039,0.3182,0.3124,0.3133,0.3121,0.3201,0.3221,0.3239,0.3008,0.3007,0.3007,0,0,0.2784,0.2783,0.28,0.283,0.2862,0.2879,0.289,0.2914,0.293,0.2983,0.2986,0.3037,0.3087,0.3129,0.3156,0.3253,0.3247,0.3272,0.3325,0.3406,0.3424,0.3439,0.3482,0.3501,0.3278,0.3278,0.3278,0,0.2784,0.2809,0.2814,0.2851,0.288,0.2892,0.2934,0.2965,0.3001,0.303,0.3012,0.312,0.3135,0.3241,0.3276,0.3283,0.3312,0.3264,0.3422,0.3438,0.3452,0.3492,0.3511,0.3284,0.3283,0.3282,0.3282,0,0.2818,0.2848,0.2865,0.2916,0.295,0.2989,0.3035,0.3073,0.3091,0.3125,0.3218,0.3248,0.3311,0.3341,0.3335,0.3457,0.3441,0.343,0.338,0.3478,0.3515,0.3533,0.3291,0.3289,0.3288,0.3286,0,0,0.2795,0.2872,0.288,0.2917,0.2988,0.3017,0.3096,0.3171,0.3226,0.3276,0.3361,0.3438,0.3446,0.3476,0.3492,0.3553,0.3677,0.3533,0.3535,0.3567,0.3842,0.3754,0.3765,0.3702,0.3706,0.3709,0.3829,0,0.2824,0.2895,0.2933,0.3014,0.3056,0.3109,0.3182,0.3253,0.3311,0.3399,0.3457,0.3541,0.3505,0.3547,0.3608,0.3671,0.3728,0.3643,0.3747,0.3749,0.3654,0.3785,0.3582,0.3666,0.3846,0.3849,0.3851,0,0.2843,0.2893,0.2966,0.3065,0.3088,0.3141,0.325,0.3324,0.3453,0.35,0.3591,0.3637,0.3751,0.3698,0.3843,0.3796,0.3819,0.3847,0.3853,0.3744,0.3696,0.3597,0.3692,0.3606,0.3879,0.3876,0.3874,0,0.2811,0.2914,0.2969,0.3004,0.312,0.3163,0.323,0.3348,0.3419,0.3573,0.3642,0.3768,0.3839,0.3917,0.3961,0.3926,0.4103,0.4066,0.4004,0.3997,0.3827,0.3799,0.3838,0.4158,0.4158,0.4158,0.4158,0,0.2821,0.2867,0.2955,0.2988,0.3066,0.315,0.3245,0.3333,0.3468,0.357,0.3687,0.3782,0.3897,0.4001,0.4029,0.4079,0.4165,0.4035,0.4039,0.3854,0.3828,0.3744,0.3703,0.4162,0.4161,0.416,0.416,0,0.2783,0.2839,0.2911,0.302,0.305,0.3107,0.3233,0.331,0.3443,0.3586,0.3644,0.3822,0.3969,0.4061,0.4195,0.4151,0.4095,0.4199,0.3954,0.3926,0.3754,0.3725,0.3633,0.3526,0.4163,0.4162,0.4161,0,0.2774,0.2804,0.2907,0.2946,0.2993,0.3081,0.3144,0.3278,0.3363,0.3599,0.3669,0.3857,0.3966,0.413,0.4114,0.4166,0.4064,0.3981,0.3867,0.3739,0.3713,0.3582,0.3489,0.3688,0.3684,0.368,0.3677,0,0.2779,0.2806,0.2872,0.293,0.2988,0.3052,0.3151,0.3201,0.3381,0.3494,0.3659,0.377,0.392,0.389,0.3945,0.3941,0.3774,0.39,0.3849,0.3415,0.3195,0.3093,0.3601,0.3642,0.3645,0.3648,0.365,0.3651,0.2791,0.2819,0.289,0.2935,0.2986,0.3017,0.3034,0.3138,0.3238,0.3373,0.3547,0.3624,0.3676,0.3724,0.37,0.3515,0.3536,0.3386,0.3386,0.3285,0.3095,0.3509,0.3501,0.3504,0.3506,0.3508,0.351,0,0.282,0.2845,0.289,0.2932,0.2933,0.2974,0.3035,0.3021,0.3074,0.3202,0.3306,0.3326,0.3284,0.3296,0.3169,0.3026,0.2871,0.2947,0.2724,0.2679,0.3124,0.3015,0.2802,0.2802,0.2802,0.2802,0.2802,0.2802,0.2852,0.2885,0.2883,0.2871,0.2874,0.2827,0.2826,0.2811,0.2848,0.2844,0.2828,0.2894,0.3004,0.2968,0.2794,0.2707,0.2514,0.2356,0.2416,0.274,0.2781,0.2819,0.271,0.2436,0.2435,0.1814,0.1809,0.1806]},{"header":{"parameterUnit":"m.s-1","parameterCategory":2,"la1":30.2991,"la2":30.254,"lo1":-89.0895,"lo2":-89.0444,"dy":0.0017,"dx":0.0017,"nx":28,"ny":28,"refTime":"2025-08-07T03:00:00:Z","depth":"0","parameterNumber":3,"parameterNumberName":"V-component_of_CURRENTS"},"data":[0,0,0,0,0,0,0,0,0,0,0,0,0,0,0,0,0,0,0,0,0,0,0,0,0,0,0,0,0,0,0,0,0,0,0,0,0,0,0,0,0,0,0,0,0,0,0,0,0,0,0,0,0,0,0,0,0,0,0.0191,0.0191,0,0.0167,0.0166,0.0166,0.0138,0.0138,0.0138,0.0137,0.0095,0.0094,0.0093,0,0,0,0,0,0,0,0,0,0,0,0,0,0.0193,0.0193,0.0191,0.0191,0.019,0.0167,0.0166,0.0166,0.0138,0.0138,0.0137,0.0137,0.0095,0.0094,0.0093,0,0,0,0,0,0,0,0,0,0,0,0,0,0.0183,0.0194,0.0191,0.0174,0.0172,0.0167,0.0166,0.0166,0.0138,0.0138,0.0137,0.0137,0.0095,0.0094,0.0093,0.0098,0,0,0.009,0.0089,0,0,0,0,0,0,0,0,0.0183,0.0183,0.0177,0.0175,0.0173,0.0155,0.0152,0.0142,0.0139,0.0151,0.0137,0.0136,0.0114,0.0111,0.0108,0.0096,0.0094,0.009,0.0089,0.0088,0.0088,0,0,0,0,0,0,0,0.0184,0.0183,0.0181,0.0176,0.0174,0.0161,0.0159,0.015,0.0136,0.015,0.0148,0.0146,0.0113,0.0109,0.0107,0.0093,0.009,0.0089,0.0088,0.0087,0.0091,0.0092,0,0,0,0,0,0,0.019,0.0184,0.0182,0.018,0.0177,0.0161,0.0159,0.0161,0.0136,0.0132,0.0146,0.0145,0.0111,0.0108,0.0105,0.0127,0.0088,0.0087,0.0087,0.009,0.0091,0.0092,0,0,0,0,0,0,0.019,0.019,0.0183,0.0182,0.018,0.0162,0.0165,0.0161,0.0156,0.0134,0.0129,0.0145,0.0111,0.0107,0.0105,0.0125,0.0087,0.0086,0.0089,0.0091,0.0092,0.016,0,0,0,0,0,0,0.019,0.019,0.0194,0.0182,0.018,0.019,0.0165,0.0161,0.0156,0.0154,0.0131,0.0126,0.011,0.0107,0.0104,0.0122,0.0085,0.0088,0.009,0.0091,0.0157,0.0163,0.0169,0,0,0,0,0,0.019,0.0203,0.0194,0.0194,0.0186,0.019,0.0189,0.0173,0.0157,0.0164,0.0148,0.0127,0.0114,0.0107,0.0103,0.0122,0.0088,0.009,0.0091,0.0154,0.0162,0.0169,0,0,0,0,0,0,0.0205,0.0201,0.0191,0.0201,0.0199,0.0186,0.0189,0.0177,0.0169,0.0164,0.0138,0.0133,0.0137,0.012,0.0113,0.0126,0.0097,0.0098,0.0146,0.0153,0.016,0.0177,0.0084,0,0,0,0,0,0.021,0.0218,0.0211,0.0218,0.0219,0.0203,0.0201,0.0193,0.0184,0.0179,0.0164,0.0149,0.0143,0.0141,0.013,0.0139,0.0124,0.0148,0.0154,0.0159,0.0171,0.0167,0.0174,0.0098,0.0098,0.0098,0,0,0.0217,0.0216,0.0219,0.0222,0.0216,0.0236,0.0201,0.0205,0.0222,0.0177,0.0192,0.0168,0.0148,0.0159,0.016,0.0148,0.0172,0.0162,0.0167,0.0176,0.017,0.0177,0.0184,0.0099,0.0099,0.0099,0,0,0.0243,0.0234,0.0253,0.026,0.0259,0.0256,0.026,0.0253,0.0249,0.0258,0.023,0.022,0.0211,0.0204,0.0198,0.0231,0.0202,0.0225,0.0275,0.0271,0.0278,0.0283,0.0271,0.0275,0.0232,0.0232,0.0232,0,0.0252,0.0278,0.026,0.0285,0.0299,0.0271,0.0304,0.03,0.0294,0.0302,0.0273,0.0265,0.0235,0.0259,0.0263,0.0246,0.0236,0.025,0.028,0.0285,0.029,0.0276,0.0279,0.0236,0.0235,0.0235,0.0235,0,0.03,0.0321,0.0335,0.0361,0.0372,0.0395,0.0392,0.0399,0.0384,0.0383,0.0392,0.0353,0.035,0.0335,0.0305,0.0329,0.0308,0.0286,0.0264,0.0302,0.0284,0.0287,0.0241,0.0239,0.0238,0.0237,0,0,0.0322,0.0362,0.0368,0.04,0.0417,0.0437,0.0463,0.0489,0.0523,0.0494,0.0538,0.0494,0.0466,0.0456,0.0417,0.0406,0.041,0.0361,0.0359,0.0354,0.0399,0.0367,0.0366,0.0395,0.0396,0.0396,0.0374,0,0.0369,0.0438,0.0441,0.0511,0.0552,0.0542,0.0583,0.0598,0.0598,0.0633,0.0587,0.0612,0.0516,0.0524,0.049,0.0445,0.042,0.0418,0.036,0.0358,0.0329,0.0369,0.036,0.0338,0.0376,0.0376,0.0377,0,0.0419,0.0464,0.054,0.0609,0.0625,0.0663,0.0723,0.0756,0.0785,0.0787,0.078,0.0751,0.0732,0.0647,0.0567,0.0572,0.0486,0.0434,0.0432,0.0382,0.0331,0.0306,0.0341,0.0218,0.038,0.0379,0.0379,0,0.0461,0.0533,0.06,0.0623,0.0693,0.0726,0.0767,0.0807,0.0865,0.0898,0.0949,0.0894,0.0899,0.0789,0.0646,0.0618,0.056,0.051,0.0395,0.0392,0.0363,0.0356,0.0277,0.0447,0.0447,0.0447,0.0447,0,0.0519,0.0573,0.0629,0.0671,0.077,0.0792,0.0899,0.0924,0.1,0.1108,0.1039,0.111,0.0935,0.0872,0.0714,0.0568,0.0604,0.0417,0.0391,0.0385,0.0381,0.0254,0.0158,0.0446,0.0446,0.0446,0.0447,0,0.0563,0.0593,0.0683,0.0765,0.0795,0.0873,0.0998,0.1086,0.1137,0.1277,0.1305,0.1285,0.1216,0.1024,0.0861,0.0678,0.0445,0.0463,0.0461,0.0435,0.0206,0.0114,-0.0011,-0.0083,0.0348,0.0347,0.0347,0,0.0595,0.0644,0.0753,0.0822,0.0864,0.0978,0.1072,0.1149,0.1256,0.1402,0.1488,0.1463,0.1472,0.1204,0.0884,0.061,0.0449,0.0401,0.0334,0.0206,0.0085,0.0023,-0.0033,0.0321,0.032,0.0319,0.0319,0,0.0671,0.0703,0.0783,0.0915,0.102,0.115,0.1287,0.139,0.1515,0.1644,0.1796,0.1821,0.1568,0.1285,0.0877,0.0676,0.0299,0.0377,0.0253,0.0067,-0.0013,-0.0097,0.0315,0.0313,0.0313,0.0314,0.0314,0.0314,0.0732,0.0801,0.0901,0.1026,0.115,0.131,0.1432,0.1596,0.1788,0.1994,0.2007,0.2064,0.1638,0.1093,0.0806,0.027,0.0256,0.0101,0.0004,-0.0041,-0.0125,0.0268,0.0229,0.0229,0.0229,0.023,0.023,0,0.0812,0.0886,0.1008,0.1161,0.1301,0.1351,0.1569,0.1706,0.1943,0.212,0.225,0.2047,0.1553,0.1034,0.03,-0.0048,-0.0173,-0.0225,-0.0312,-0.0349,0.0018,0.0004,-0.0095,-0.0095,-0.0095,-0.0095,-0.0095,-0.0095,0.0864,0.098,0.1032,0.1254,0.1366,0.1559,0.1686,0.1893,0.2045,0.225,0.2263,0.2238,0.1808,0.0597,-0.0187,-0.036,-0.0586,-0.0657,-0.0758,-0.0507,-0.0483,-0.0461,-0.0494,-0.0696,-0.0697,-0.107,-0.1074,-0.1077]}],[{"header":{"parameterUnit":"m.s-1","parameterCategory":2,"la1":30.2991,"la2":30.254,"lo1":-89.0895,"lo2":-89.0444,"dy":0.0017,"dx":0.0017,"nx":28,"ny":28,"refTime":"2025-08-07T03:00:00:Z","depth":"2","parameterNumber":2,"parameterNumberName":"U-component_of_CURRENTS"},"data":[0,0,0,0,0,0,0,0,0,0,0,0,0,0,0,0,0,0,0,0,0,0,0,0,0,0,0,0,0,0,0,0,0,0,0,0,0,0,0,0,0,0,0,0,0,0,0,0,0,0,0,0,0,0,0,0,0,0,0.2591,0.2591,0,0.2609,0.2609,0.2609,0.2608,0.2608,0.2607,0.2607,0.2634,0.2635,0.2636,0,0,0,0,0,0,0,0,0,0,0,0,0,0.2567,0.2567,0.2591,0.2591,0.2592,0.2609,0.2609,0.2609,0.2608,0.2608,0.2607,0.2607,0.2634,0.2635,0.2636,0,0,0,0,0,0,0,0,0,0,0,0,0,0.2579,0.2567,0.2591,0.2594,0.2595,0.2609,0.2609,0.2609,0.2608,0.2608,0.2607,0.2607,0.2633,0.2635,0.2636,0.2646,0,0,0.2639,0.264,0,0,0,0,0,0,0,0,0.2578,0.2579,0.2593,0.2594,0.2595,0.2607,0.261,0.2623,0.2608,0.2601,0.2607,0.2607,0.2627,0.2629,0.263,0.2648,0.2649,0.264,0.264,0.2641,0.2641,0,0,0,0,0,0,0,0.2577,0.2579,0.2596,0.2594,0.2595,0.2599,0.26,0.2613,0.2614,0.2602,0.2602,0.2607,0.2627,0.2629,0.2631,0.2649,0.264,0.2641,0.2641,0.2642,0.2742,0.2744,0,0,0,0,0,0,0.2578,0.2578,0.2596,0.2597,0.2588,0.26,0.2601,0.2602,0.2613,0.2615,0.2607,0.2607,0.2627,0.2629,0.2632,0.2703,0.2641,0.2642,0.2643,0.274,0.2742,0.2744,0,0,0,0,0,0,0.2577,0.2579,0.2595,0.2589,0.2592,0.26,0.2602,0.2603,0.2614,0.2618,0.2619,0.2619,0.2627,0.263,0.266,0.2702,0.2643,0.2644,0.2738,0.2741,0.2743,0.281,0,0,0,0,0,0,0.2577,0.2579,0.2583,0.2589,0.2592,0.2616,0.2602,0.2603,0.2618,0.2618,0.2628,0.263,0.2627,0.2658,0.2661,0.2703,0.2645,0.2735,0.2739,0.2743,0.2805,0.2814,0.2823,0,0,0,0,0,0.2576,0.2581,0.2583,0.2586,0.2597,0.2617,0.262,0.2624,0.2619,0.2632,0.2641,0.263,0.2683,0.266,0.2663,0.2707,0.2734,0.2738,0.2742,0.2801,0.2813,0.2822,0,0,0,0,0,0,0.2572,0.2582,0.2584,0.2593,0.2611,0.2618,0.2629,0.2632,0.2648,0.265,0.2648,0.2651,0.2699,0.2691,0.2666,0.2748,0.271,0.2715,0.2754,0.2765,0.2773,0.2776,0.2646,0,0,0,0,0,0.2574,0.2582,0.2596,0.2605,0.2615,0.2624,0.2634,0.2641,0.2654,0.266,0.2671,0.2688,0.2718,0.273,0.2751,0.2787,0.2795,0.282,0.2829,0.2836,0.2842,0.2914,0.293,0.2759,0.2759,0.2759,0,0,0.2575,0.2583,0.2586,0.2606,0.2617,0.2642,0.263,0.2652,0.2677,0.2662,0.27,0.272,0.2735,0.2784,0.2804,0.2782,0.2885,0.2842,0.2848,0.285,0.292,0.2937,0.2952,0.2762,0.2761,0.2761,0,0,0.2583,0.2589,0.2601,0.2624,0.265,0.266,0.2671,0.2692,0.2706,0.275,0.275,0.2794,0.2831,0.2853,0.2868,0.2937,0.2933,0.2948,0.2991,0.3062,0.3076,0.3089,0.3101,0.3115,0.2948,0.2949,0.2949,0,0.2585,0.2601,0.261,0.2636,0.2657,0.2671,0.2698,0.2719,0.275,0.2778,0.2775,0.2862,0.287,0.2935,0.2958,0.2959,0.2978,0.2948,0.3073,0.3087,0.3099,0.3108,0.3122,0.2952,0.2952,0.2952,0.2951,0,0.2606,0.2627,0.264,0.2676,0.27,0.2729,0.276,0.2794,0.282,0.2851,0.293,0.2951,0.3007,0.302,0.3009,0.3101,0.3078,0.308,0.3045,0.312,0.3124,0.3138,0.2958,0.2956,0.2955,0.2954,0,0,0.2589,0.2643,0.2649,0.2673,0.2726,0.2745,0.2801,0.2857,0.2908,0.2957,0.3034,0.3085,0.3112,0.313,0.3132,0.3179,0.327,0.3166,0.3168,0.3174,0.3396,0.3316,0.3322,0.3304,0.3307,0.331,0.3355,0,0.2604,0.2649,0.2677,0.2729,0.2754,0.28,0.2854,0.2913,0.2971,0.3052,0.3101,0.3179,0.3149,0.3192,0.3239,0.3274,0.3313,0.3255,0.3325,0.3326,0.3245,0.3339,0.3066,0.308,0.3369,0.3371,0.3372,0,0.2612,0.2643,0.2687,0.2758,0.2776,0.2816,0.2908,0.2963,0.308,0.3139,0.3228,0.3272,0.3354,0.3325,0.3418,0.3387,0.3398,0.3409,0.3412,0.3325,0.3273,0.3057,0.3094,0.3395,0.3393,0.3391,0.339,0,0.2579,0.2648,0.2678,0.2705,0.279,0.2829,0.2885,0.2993,0.3064,0.3206,0.3284,0.3381,0.3451,0.3497,0.3524,0.3489,0.3621,0.3576,0.3503,0.3495,0.3269,0.3236,0.365,0.365,0.365,0.365,0.3649,0,0.2578,0.2605,0.2668,0.269,0.2748,0.2819,0.2911,0.2989,0.3131,0.3225,0.3327,0.341,0.3507,0.3585,0.3581,0.3593,0.3675,0.3528,0.3523,0.328,0.325,0.3527,0.3512,0.3651,0.3651,0.365,0.365,0,0.2537,0.2579,0.2619,0.2703,0.2731,0.2777,0.2917,0.2992,0.3131,0.326,0.3317,0.3473,0.3561,0.3626,0.3712,0.3662,0.3683,0.3662,0.3346,0.3303,0.3478,0.3467,0.3568,0.3566,0.3564,0.3562,0.3561,0,0.2522,0.2534,0.2606,0.2639,0.2679,0.2764,0.2828,0.2976,0.3056,0.3273,0.3321,0.3477,0.3527,0.3624,0.3602,0.3595,0.3666,0.3327,0.3209,0.3496,0.3481,0.3471,0.3462,0.2918,0.2912,0.2907,0.2903,0,0.2498,0.2518,0.2555,0.2606,0.2662,0.2725,0.2822,0.2883,0.3057,0.3146,0.3266,0.3332,0.3435,0.3316,0.3344,0.3295,0.3306,0.3219,0.3646,0.2989,0.289,0.2873,0.2884,0.2856,0.2861,0.2864,0.2867,0.2869,0.2484,0.2491,0.2534,0.2572,0.2633,0.2668,0.2676,0.2772,0.2849,0.2931,0.3082,0.3071,0.3114,0.2999,0.2908,0.285,0.3061,0.2903,0.2916,0.2936,0.286,0.2766,0.269,0.2694,0.2697,0.27,0.2702,0,0.2453,0.2465,0.2503,0.2528,0.2531,0.2589,0.2652,0.2617,0.262,0.2712,0.2753,0.2538,0.2462,0.2509,0.2347,0.2336,0.2284,0.223,0.2138,0.2187,0.2231,0.2116,0.175,0.1747,0.1744,0.1741,0,0,0.2444,0.2444,0.2439,0.2407,0.2417,0.2383,0.2377,0.2325,0.2351,0.2265,0.2227,0.238,0.2466,0.2091,0.2033,0.1868,0.2009,0.1789,0.2562,0.2507,0.2546,0.2639,0.2522,0,0,0,0,0]},{"header":{"parameterUnit":"m.s-1","parameterCategory":2,"la1":30.2991,"la2":30.254,"lo1":-89.0895,"lo2":-89.0444,"dy":0.0017,"dx":0.0017,"nx":28,"ny":28,"refTime":"2025-08-07T03:00:00:Z","depth":"2","parameterNumber":3,"parameterNumberName":"V-component_of_CURRENTS"},"data":[0,0,0,0,0,0,0,0,0,0,0,0,0,0,0,0,0,0,0,0,0,0,0,0,0,0,0,0,0,0,0,0,0,0,0,0,0,0,0,0,0,0,0,0,0,0,0,0,0,0,0,0,0,0,0,0,0,0,0.0081,0.008,0,0.0056,0.0056,0.0056,0.0031,0.0031,0.0031,0.0031,-0.0009,-0.0009,-0.001,0,0,0,0,0,0,0,0,0,0,0,0,0,0.0084,0.0084,0.0081,0.008,0.008,0.0056,0.0056,0.0055,0.0031,0.0031,0.0031,0.003,-0.0008,-0.0009,-0.001,0,0,0,0,0,0,0,0,0,0,0,0,0,0.0073,0.0084,0.0081,0.0065,0.0064,0.0056,0.0056,0.0055,0.0032,0.0031,0.0031,0.003,-0.0008,-0.0009,-0.001,-0.0009,0,0,-0.0014,-0.0014,0,0,0,0,0,0,0,0,0.0074,0.0073,0.0068,0.0066,0.0065,0.0047,0.0043,0.0033,0.0032,0.0043,0.0031,0.003,0.0009,0.0006,0.0003,-0.001,-0.0012,-0.0014,-0.0015,-0.0015,-0.0015,0,0,0,0,0,0,0,0.0075,0.0074,0.0071,0.0068,0.0066,0.0052,0.005,0.0041,0.0029,0.0042,0.0041,0.0039,0.0008,0.0004,0.0002,-0.0013,-0.0014,-0.0015,-0.0016,-0.0016,-0.0023,-0.0023,0,0,0,0,0,0,0.008,0.0075,0.0071,0.007,0.0069,0.0053,0.005,0.0053,0.0029,0.0025,0.0039,0.0038,0.0006,0.0003,0.0,0.0016,-0.0015,-0.0016,-0.0017,-0.0024,-0.0023,-0.0023,0,0,0,0,0,0,0.008,0.008,0.0072,0.0072,0.007,0.0053,0.0056,0.0052,0.0049,0.0026,0.0022,0.0039,0.0006,0.0002,-0.0003,0.0013,-0.0017,-0.0018,-0.0025,-0.0024,-0.0023,0.0037,0,0,0,0,0,0,0.0081,0.0081,0.0084,0.0072,0.007,0.0078,0.0056,0.0052,0.0048,0.0046,0.0025,0.0021,0.0005,-0.0001,-0.0004,0.0011,-0.0019,-0.0025,-0.0024,-0.0023,0.0035,0.004,0.0045,0,0,0,0,0,0.0081,0.0093,0.0085,0.0084,0.0076,0.0078,0.0077,0.0062,0.0049,0.0056,0.0039,0.0022,0.0003,-0.0001,-0.0005,0.001,-0.0026,-0.0024,-0.0023,0.0032,0.0039,0.0044,0,0,0,0,0,0,0.0096,0.0091,0.0082,0.0091,0.0088,0.0075,0.0078,0.0066,0.0058,0.0054,0.0029,0.0024,0.0025,0.0009,0.0005,0.001,-0.0015,-0.0014,0.0029,0.0035,0.004,0.0058,-0.002,0,0,0,0,0,0.0101,0.0108,0.01,0.0107,0.0107,0.0092,0.009,0.0082,0.0072,0.0068,0.0053,0.0037,0.0027,0.0024,0.0011,0.0017,-0.0005,0.0023,0.0028,0.0032,0.0044,0.0028,0.0032,-0.0019,-0.0019,-0.0019,0,0,0.0108,0.0106,0.0109,0.011,0.0104,0.0121,0.009,0.0093,0.0107,0.0065,0.0076,0.0053,0.0031,0.0036,0.0035,0.0026,0.0032,0.0034,0.0038,0.0048,0.0029,0.0034,0.0039,-0.0018,-0.0019,-0.0019,0,0,0.0131,0.0124,0.0141,0.0145,0.0144,0.0139,0.0143,0.0135,0.013,0.0136,0.0108,0.0096,0.0084,0.0073,0.0065,0.009,0.0056,0.0083,0.0128,0.0112,0.0116,0.012,0.0087,0.0087,0.009,0.009,0.009,0,0.014,0.0162,0.0146,0.0168,0.0179,0.0153,0.0181,0.0175,0.0167,0.0172,0.0149,0.0132,0.0104,0.0116,0.0119,0.0103,0.0082,0.0109,0.012,0.0123,0.0125,0.0091,0.009,0.0093,0.0092,0.0092,0.0092,0,0.0182,0.02,0.0212,0.0233,0.0242,0.0261,0.0256,0.026,0.0247,0.0243,0.0245,0.0206,0.0199,0.0184,0.0157,0.0167,0.0142,0.0125,0.0107,0.0134,0.0096,0.0094,0.0097,0.0096,0.0095,0.0094,0,0,0.0205,0.0237,0.0242,0.0269,0.0281,0.0298,0.0317,0.0335,0.0361,0.0334,0.0365,0.0324,0.0298,0.0287,0.0249,0.023,0.0214,0.019,0.0187,0.0162,0.0168,0.0138,0.0132,0.0202,0.0202,0.0202,0.0129,0,0.0246,0.0304,0.0306,0.0366,0.0399,0.0389,0.042,0.0429,0.0425,0.0447,0.0401,0.0416,0.034,0.0343,0.0307,0.0246,0.0215,0.0235,0.0141,0.0138,0.0113,0.0131,0.0154,0.0091,0.0127,0.0127,0.0127,0,0.0291,0.0328,0.0392,0.0449,0.0463,0.0493,0.0539,0.0565,0.0577,0.0578,0.0566,0.0532,0.05,0.0436,0.0333,0.035,0.0263,0.0205,0.02,0.0154,0.0106,0.0071,0.0086,0.0124,0.0124,0.0124,0.0124,0,0.0328,0.0389,0.0446,0.0465,0.0521,0.0548,0.0581,0.0607,0.0656,0.0669,0.0705,0.0642,0.0636,0.0521,0.038,0.0361,0.0266,0.0224,0.0111,0.0107,0.0099,0.0095,0.0152,0.0152,0.0152,0.0153,0.0153,0,0.038,0.0426,0.047,0.0506,0.0588,0.0606,0.0696,0.0712,0.077,0.0852,0.0781,0.082,0.0661,0.0581,0.0426,0.0267,0.0295,0.0125,0.0093,0.0119,0.0117,0.0126,0.0124,0.015,0.0151,0.0151,0.0152,0,0.0417,0.0443,0.0516,0.0582,0.0609,0.0672,0.0784,0.0855,0.0892,0.0995,0.1012,0.0968,0.0859,0.068,0.0502,0.0347,0.0189,0.0123,0.0154,0.0128,0.0022,0.0023,-0.0016,-0.0017,-0.0018,-0.0019,-0.002,0,0.0443,0.0482,0.0572,0.063,0.0665,0.0764,0.0843,0.0912,0.0997,0.1088,0.1144,0.108,0.1036,0.0751,0.0487,0.0218,0.0182,0.0056,0.0019,0.0035,0.0008,0.0012,0.0015,0.0023,0.0023,0.0022,0.0022,0,0.0496,0.0522,0.0586,0.0699,0.0787,0.0904,0.1016,0.1109,0.1206,0.1285,0.1363,0.1336,0.1077,0.0814,0.045,0.0263,0.0097,0.0038,0.0067,0.0064,0.0066,0.0041,0.0044,0.0018,0.0019,0.0019,0.0019,0.0019,0.0533,0.0586,0.0666,0.0776,0.0885,0.1028,0.1134,0.1264,0.1407,0.1525,0.1497,0.1458,0.1164,0.0694,0.0385,0.0068,0.0077,-0.0051,-0.0048,-0.0044,-0.0024,-0.0024,-0.0087,-0.0087,-0.0087,-0.0087,-0.0087,0,0.0579,0.0639,0.0741,0.0872,0.0992,0.1044,0.1239,0.1345,0.1514,0.1602,0.1644,0.1356,0.1063,0.073,0.0267,-0.0025,-0.0044,-0.0127,-0.0081,-0.0075,-0.0071,-0.0051,-0.0121,-0.0122,-0.0123,-0.0124,0,0,0.0606,0.0697,0.0744,0.0927,0.1026,0.1199,0.1314,0.1469,0.1578,0.1646,0.1629,0.1558,0.1166,0.0818,0.0426,0.0161,0.0107,0.0099,0.0157,0.0265,0.0272,0.0002,0.0043,0,0,0,0,0]}],[{"header":{"parameterUnit":"m.s-1","parameterCategory":2,"la1":30.2991,"la2":30.254,"lo1":-89.0895,"lo2":-89.0444,"dy":0.0017,"dx":0.0017,"nx":28,"ny":28,"refTime":"2025-08-07T03:00:00:Z","depth":"4","parameterNumber":2,"parameterNumberName":"U-component_of_CURRENTS"},"data":[0,0,0,0,0,0,0,0,0,0,0,0,0,0,0,0,0,0,0,0,0,0,0,0,0,0,0,0,0,0,0,0,0,0,0,0,0,0,0,0,0,0,0,0,0,0,0,0,0,0,0,0,0,0,0,0,0,0,0.1693,0.1693,0,0.1742,0.1743,0.1743,0.1794,0.1795,0.1796,0.1796,0.1856,0.1857,0.1857,0,0,0,0,0,0,0,0,0,0,0,0,0,0.1634,0.1634,0.1693,0.1693,0.1694,0.1742,0.1743,0.1743,0.1794,0.1795,0.1796,0.1797,0.1856,0.1856,0.1857,0,0,0,0,0,0,0,0,0,0,0,0,0,0.1667,0.1634,0.1692,0.1726,0.173,0.1742,0.1743,0.1743,0.1793,0.1795,0.1796,0.1797,0.1855,0.1856,0.1858,0.1839,0,0,0.1861,0.1862,0,0,0,0,0,0,0,0,0.1665,0.1669,0.1721,0.1724,0.1728,0.1765,0.1744,0.1777,0.1793,0.1768,0.1796,0.1798,0.1826,0.183,0.1834,0.1842,0.1845,0.1861,0.1862,0.1863,0.1863,0,0,0,0,0,0,0,0.1663,0.1667,0.1711,0.1721,0.1726,0.1736,0.1742,0.175,0.1788,0.177,0.1774,0.1782,0.1828,0.1833,0.1836,0.1846,0.1861,0.1862,0.1863,0.1864,0.1945,0.1947,0,0,0,0,0,0,0.1659,0.1665,0.1709,0.1712,0.1701,0.1737,0.1743,0.175,0.1788,0.1795,0.1781,0.1784,0.183,0.1834,0.1838,0.1906,0.1863,0.1864,0.1864,0.1944,0.1946,0.1947,0,0,0,0,0,0,0.1658,0.1662,0.1707,0.1691,0.1698,0.1737,0.1744,0.1751,0.1792,0.1796,0.1804,0.182,0.1831,0.1836,0.1879,0.1906,0.1864,0.1865,0.1942,0.1945,0.1947,0.1986,0,0,0,0,0,0,0.1656,0.1661,0.1683,0.1691,0.1699,0.1737,0.1743,0.1751,0.1793,0.1799,0.1831,0.1836,0.1833,0.1877,0.188,0.1906,0.1866,0.194,0.1943,0.1946,0.1983,0.1989,0.1995,0,0,0,0,0,0.1653,0.167,0.1683,0.169,0.1721,0.1738,0.1744,0.1773,0.1794,0.1815,0.1842,0.1837,0.1897,0.1879,0.1882,0.191,0.1939,0.1942,0.1946,0.198,0.1988,0.1995,0,0,0,0,0,0,0.1657,0.1677,0.1692,0.1716,0.1738,0.1748,0.1775,0.1793,0.1829,0.1848,0.1852,0.1859,0.1907,0.1904,0.1885,0.1943,0.1918,0.1922,0.1944,0.1951,0.1957,0.1961,0.1867,0,0,0,0,0,0.1666,0.1688,0.1704,0.1729,0.1742,0.1766,0.1785,0.1805,0.1829,0.1849,0.187,0.1895,0.1915,0.1932,0.1948,0.1976,0.1989,0.1998,0.2004,0.2009,0.2016,0.2066,0.2077,0.1958,0.1958,0.1958,0,0,0.1676,0.1691,0.1705,0.1733,0.1754,0.1769,0.1782,0.1819,0.184,0.1847,0.1897,0.192,0.1929,0.1965,0.1986,0.197,0.205,0.2013,0.2017,0.2022,0.2071,0.2082,0.2093,0.196,0.196,0.196,0,0,0.1689,0.172,0.1737,0.1755,0.1792,0.1801,0.182,0.185,0.1879,0.1918,0.1934,0.1976,0.2005,0.2018,0.2025,0.2074,0.2083,0.2087,0.2118,0.2167,0.2177,0.2186,0.2216,0.2227,0.2087,0.2087,0.2087,0,0.1704,0.1719,0.1747,0.1763,0.1781,0.1818,0.1834,0.186,0.1904,0.1937,0.1944,0.2019,0.2025,0.207,0.2087,0.2087,0.2116,0.2087,0.2174,0.2184,0.2192,0.2221,0.2233,0.209,0.2089,0.2089,0.2089,0,0.1713,0.1738,0.1751,0.178,0.1806,0.1829,0.186,0.1906,0.1946,0.1974,0.2048,0.2068,0.2118,0.2123,0.2116,0.2185,0.2186,0.2178,0.2154,0.2207,0.2233,0.2245,0.2093,0.2092,0.2091,0.2091,0,0,0.1705,0.1748,0.1756,0.1772,0.1816,0.1834,0.1884,0.1933,0.1985,0.2037,0.2103,0.2139,0.2181,0.2193,0.2206,0.2237,0.2313,0.2239,0.2241,0.2265,0.2425,0.2258,0.2255,0.2332,0.2334,0.2336,0.2418,0,0.1703,0.1728,0.1754,0.1787,0.1798,0.1852,0.1891,0.1952,0.2013,0.2089,0.2139,0.2206,0.2198,0.2242,0.2277,0.2313,0.2348,0.2291,0.2374,0.2376,0.2218,0.2263,0.2343,0.2427,0.2429,0.2431,0.2433,0,0.1691,0.1709,0.1737,0.1787,0.1802,0.1837,0.1926,0.197,0.208,0.2136,0.2226,0.2276,0.2354,0.2333,0.2429,0.2403,0.2423,0.2434,0.2437,0.2275,0.223,0.2364,0.2454,0.2452,0.2451,0.2449,0.2448,0,0.1649,0.1695,0.1719,0.1734,0.1798,0.1845,0.1895,0.1998,0.2053,0.2191,0.2257,0.2356,0.2424,0.2474,0.2508,0.2492,0.2594,0.2572,0.2437,0.2426,0.2535,0.2524,0.2634,0.2634,0.2634,0.2634,0.2634,0,0.161,0.1633,0.1712,0.172,0.1771,0.1834,0.1915,0.1989,0.2106,0.2174,0.2294,0.2357,0.2468,0.2535,0.2549,0.2526,0.2637,0.2448,0.2437,0.2548,0.2539,0.2543,0.2531,0.2637,0.2636,0.2636,0.2635,0,0.1551,0.16,0.1632,0.1715,0.175,0.1795,0.1915,0.1968,0.2098,0.2197,0.2249,0.2395,0.2479,0.2553,0.2633,0.2561,0.2562,0.2524,0.2643,0.2637,0.2353,0.2343,0.2384,0.2379,0.2375,0.2371,0.2368,0,0.1513,0.1526,0.1622,0.1648,0.1693,0.1774,0.1824,0.1955,0.2006,0.219,0.2218,0.2363,0.244,0.2425,0.251,0.2528,0.2493,0.2475,0.2399,0.2343,0.2329,0.2326,0.2322,0.2361,0.236,0.2359,0.2357,0,0.1438,0.1495,0.1525,0.1582,0.1642,0.1687,0.1769,0.1793,0.1938,0.2085,0.214,0.2189,0.2274,0.2326,0.2356,0.236,0.2475,0.2429,0.2437,0.2365,0.2315,0.2305,0.2306,0.2342,0.2344,0.2346,0.2347,0,0.1393,0.1397,0.1452,0.149,0.1557,0.1559,0.1621,0.1673,0.1741,0.1937,0.1954,0.2107,0.225,0.224,0.2268,0.226,0.2222,0.2136,0.2159,0.2177,0.2068,0.197,0.1887,0,0,0,0,0,0.1327,0.1314,0.1345,0.1365,0.1428,0.1461,0.1557,0.1622,0.1771,0.176,0.1847,0.1917,0.197,0.2051,0.2001,0.2168,0.2223,0.2099,0.2135,0.2258,0.2275,0.2164,0,0,0,0,0,0,0.1278,0.13,0.1302,0.1256,0.1248,0.1291,0.1344,0.1446,0.1442,0.1613,0.1656,0.1793,0.1878,0.1981,0.1964,0.1986,0.1965,0.2198,0.2193,0.2248,0.2264,0.2278,0.2169,0,0,0,0,0]},{"header":{"parameterUnit":"m.s-1","parameterCategory":2,"la1":30.2991,"la2":30.254,"lo1":-89.0895,"lo2":-89.0444,"dy":0.0017,"dx":0.0017,"nx":28,"ny":28,"refTime":"2025-08-07T03:00:00:Z","depth":"4","parameterNumber":3,"parameterNumberName":"V-component_of_CURRENTS"},"data":[0,0,0,0,0,0,0,0,0,0,0,0,0,0,0,0,0,0,0,0,0,0,0,0,0,0,0,0,0,0,0,0,0,0,0,0,0,0,0,0,0,0,0,0,0,0,0,0,0,0,0,0,0,0,0,0,0,0,0.003,0.003,0,0.0013,0.0013,0.0013,-0.0005,-0.0006,-0.0006,-0.0006,-0.0036,-0.0037,-0.0037,0,0,0,0,0,0,0,0,0,0,0,0,0,0.0032,0.0032,0.003,0.003,0.0029,0.0013,0.0013,0.0013,-0.0005,-0.0006,-0.0006,-0.0006,-0.0036,-0.0037,-0.0037,0,0,0,0,0,0,0,0,0,0,0,0,0,0.0025,0.0032,0.003,0.0018,0.0017,0.0013,0.0013,0.0013,-0.0005,-0.0006,-0.0006,-0.0006,-0.0036,-0.0037,-0.0037,-0.0035,0,0,-0.004,-0.004,0,0,0,0,0,0,0,0,0.0025,0.0025,0.002,0.0019,0.0018,0.0006,0.0003,-0.0004,-0.0005,0.0003,-0.0006,-0.0007,-0.0023,-0.0025,-0.0027,-0.0036,-0.0038,-0.004,-0.0041,-0.0041,-0.0041,0,0,0,0,0,0,0,0.0026,0.0025,0.0023,0.002,0.0019,0.0009,0.0008,0.0001,-0.0008,0.0003,0.0001,-0.0001,-0.0024,-0.0026,-0.0028,-0.0038,-0.004,-0.0041,-0.0041,-0.0042,-0.0045,-0.0044,0,0,0,0,0,0,0.0029,0.0026,0.0024,0.0023,0.0021,0.001,0.0008,0.001,-0.0008,-0.001,-0.0,-0.0001,-0.0025,-0.0027,-0.0029,-0.0014,-0.0041,-0.0042,-0.0042,-0.0045,-0.0045,-0.0044,0,0,0,0,0,0,0.0029,0.0029,0.0024,0.0024,0.0022,0.001,0.0012,0.001,0.0007,-0.0009,-0.0013,-0.0,-0.0025,-0.0028,-0.0031,-0.0016,-0.0042,-0.0043,-0.0046,-0.0045,-0.0044,0.0008,0,0,0,0,0,0,0.003,0.003,0.0033,0.0024,0.0023,0.0029,0.0012,0.001,0.0007,0.0005,-0.001,-0.0014,-0.0026,-0.0029,-0.0032,-0.0018,-0.0044,-0.0046,-0.0045,-0.0045,0.0006,0.001,0.0014,0,0,0,0,0,0.003,0.0038,0.0033,0.0033,0.0027,0.003,0.0028,0.0018,0.0007,0.0013,0.0,-0.0013,-0.0026,-0.003,-0.0032,-0.0018,-0.0047,-0.0046,-0.0045,0.0004,0.0009,0.0014,0,0,0,0,0,0,0.004,0.0037,0.0031,0.0038,0.0036,0.0027,0.0029,0.0021,0.0015,0.0012,-0.0007,-0.0011,-0.0009,-0.0022,-0.0025,-0.0018,-0.0039,-0.0038,-0.0001,0.0004,0.0008,0.0019,-0.0044,0,0,0,0,0,0.0045,0.005,0.0045,0.005,0.005,0.0039,0.0038,0.0033,0.0025,0.0022,0.0011,-0.0001,-0.0006,-0.0008,-0.0017,-0.0011,-0.0037,-0.0005,-0.0,0.0004,0.001,-0.0018,-0.0016,-0.0041,-0.0041,-0.0041,0,0,0.005,0.0048,0.0051,0.0053,0.0049,0.0062,0.0038,0.0041,0.0053,0.002,0.0031,0.0013,-0.0003,0.0004,0.0004,-0.0004,-0.0004,0.0005,0.0008,0.0013,-0.0017,-0.0014,-0.0012,-0.004,-0.0041,-0.0041,0,0,0.0068,0.0062,0.0075,0.0079,0.0079,0.0076,0.0079,0.0073,0.0071,0.0077,0.0057,0.0048,0.0041,0.0034,0.0029,0.0051,0.0017,0.0048,0.0083,0.0056,0.0057,0.0059,0.0023,0.0021,0.0053,0.0053,0.0053,0,0.0074,0.0091,0.008,0.0096,0.0106,0.0087,0.0109,0.0107,0.0102,0.0105,0.0088,0.0075,0.0057,0.0067,0.0074,0.0062,0.0036,0.0066,0.0061,0.0062,0.0063,0.0026,0.0023,0.0056,0.0055,0.0055,0.0055,0,0.0105,0.0121,0.0129,0.0147,0.0155,0.0171,0.017,0.0174,0.0165,0.0162,0.0163,0.0135,0.0128,0.012,0.0104,0.0106,0.0082,0.0068,0.005,0.0069,0.0028,0.0024,0.0059,0.0059,0.0058,0.0057,0,0,0.0121,0.0147,0.0152,0.0173,0.0186,0.0199,0.0218,0.0234,0.025,0.0232,0.0246,0.0228,0.0205,0.0197,0.0172,0.0148,0.0123,0.0114,0.0111,0.0082,0.0055,0.004,0.0034,0.0107,0.0106,0.0106,0.0024,0,0.0151,0.0196,0.0201,0.0248,0.0273,0.027,0.0296,0.0305,0.03,0.0306,0.0274,0.0276,0.0238,0.0233,0.0205,0.0145,0.0116,0.0146,0.0039,0.0036,0.0023,0.003,0.0105,0.002,0.0019,0.0019,0.0018,0,0.0183,0.0212,0.0263,0.0308,0.0318,0.0344,0.0379,0.04,0.04,0.0396,0.0382,0.035,0.0321,0.028,0.0189,0.021,0.014,0.0087,0.0082,0.0049,0.0014,-0.0002,0.001,0.0011,0.0011,0.0012,0.0012,0,0.0206,0.0256,0.0301,0.0317,0.0362,0.0385,0.0411,0.0427,0.0455,0.0451,0.0457,0.0412,0.0391,0.0302,0.0189,0.0188,0.0076,0.0059,-0.0022,-0.0025,-0.001,-0.0011,-0.0008,-0.0008,-0.0008,-0.0008,-0.0007,0,0.0239,0.0276,0.0317,0.0344,0.0405,0.0423,0.0484,0.0495,0.0521,0.056,0.0507,0.051,0.0395,0.0315,0.0206,0.0079,0.0086,-0.0015,-0.0043,0.0013,0.0016,-0.0014,-0.0013,-0.0011,-0.001,-0.0009,-0.0009,0,0.0258,0.0283,0.034,0.0395,0.0418,0.0463,0.0539,0.0581,0.0594,0.0637,0.0638,0.0583,0.0482,0.035,0.0201,0.0108,-0.0018,-0.0068,-0.0002,-0.0026,-0.0107,-0.0103,-0.0161,-0.0162,-0.0163,-0.0164,-0.0165,0,0.027,0.03,0.0375,0.0416,0.0445,0.0517,0.0572,0.0615,0.0659,0.0681,0.0698,0.062,0.0564,0.0345,0.0198,-0.0014,-0.0045,-0.0118,-0.0108,-0.0099,-0.0121,-0.0116,-0.011,-0.0166,-0.0167,-0.0167,-0.0167,0,0.0292,0.0317,0.0365,0.0449,0.0513,0.0595,0.0668,0.0705,0.0758,0.0767,0.0753,0.0645,0.0529,0.0355,0.0189,0.0036,-0.0073,-0.0128,-0.0127,-0.0118,-0.0106,-0.0126,-0.012,-0.017,-0.017,-0.017,-0.0169,0,0.0305,0.034,0.0401,0.0481,0.0562,0.0645,0.0688,0.0742,0.0786,0.0804,0.0797,0.0673,0.0607,0.038,0.0225,0.0074,0.0035,-0.002,-0.0025,-0.0023,0.0038,0.0075,0.0046,0,0,0,0,0,0.0316,0.0359,0.0428,0.0517,0.0601,0.0653,0.0741,0.0778,0.0822,0.0823,0.0815,0.0708,0.0494,0.0399,0.0247,0.019,-0.0006,0.0003,-0.0075,-0.0189,-0.0185,-0.0138,0,0,0,0,0,0,0.0324,0.0384,0.0425,0.0533,0.0598,0.0696,0.0756,0.079,0.0789,0.0807,0.0697,0.0657,0.0446,0.0583,0.024,0.0194,0.012,-0.0093,-0.0096,-0.0191,-0.0188,-0.0185,-0.0134,0,0,0,0,0]}]]